Flag for Canada Weather past 2 weeks in Halton Hills, Ontario, Canada

Now
0 °F

Passing clouds.


Feels Like: -15 °F
Forecast: -10 / 7 °F
Wind: 8 mph from Northwest

Location: Toronto Pearson International Airport

Current Time: Feb 27, 2015 at 3:08:35 AM

Latest Report: Feb 27, 2015 at 2:00 AM


Visibility: 15 mi

Pressure: 30.36 "Hg

Humidity: 65%

Dew point: -9 °F

Location of Halton HillsLocation

Historic Weather in Halton Hills — Graph

°F

Halton Hills temperature yesterday

Maximum temperature yesterday: 12 °F (at 1:00 PM)
Minimum temperature yesterday: 1 °F (at 3:00 AM)
Average temperature yesterday: 6 °F

Past Weeks' High & Low Weather Summary

 TemperatureHumidityPressure
High27 °F (Feb 12, 2:00 AM)93% (Feb 21, 7:00 PM)30.61 "Hg (Feb 21, 7:00 PM)
Low-13 °F (Feb 15, 6:00 AM)24% (Feb 17, 3:00 PM)29.57 "Hg (Feb 14, 10:00 AM)
Average6 °F64%30.10 "Hg
* Reported Feb 12 2:00 AM — Feb 27 2:00 AM, Halton Hills, Weather by CustomWeather, © 2015

Note: Actual official high and low records may vary slightly from our data, if they occured in-between our weather recording intervals... More about our weather records

Advertising

Halton Hills weather history for previous 24 hours

 ConditionsComfort  
Time TempWeatherWind HumidityBarometerVisibility
2:00 AM
Fri, Feb 27
0 °FPassing clouds.8 mph65%30.36 "Hg15 mi
1:00 AM0 °FPassing clouds.7 mph65%30.34 "Hg15 mi
12:00 AM1 °FPassing clouds.9 mph65%30.33 "Hg15 mi
11:00 PM
Thu, Feb 26
3 °FPassing clouds.10 mph60%30.32 "Hg15 mi
10:00 PM5 °FOvercast.13 mph60%30.30 "Hg15 mi
9:00 PM5 °FPartly cloudy.13 mph55%30.29 "Hg15 mi
8:00 PM5 °FPassing clouds.15 mph55%30.26 "Hg15 mi
7:00 PM7 °FPassing clouds.18 mph56%30.24 "Hg15 mi
6:00 PM10 °FBroken clouds.14 mph52%30.21 "Hg15 mi
5:00 PM12 °FMostly cloudy.14 mph40%30.19 "Hg15 mi
4:00 PM12 °FMostly cloudy.10 mph44%30.18 "Hg15 mi
3:00 PM12 °FOvercast.10 mph48%30.16 "Hg15 mi
2:00 PM12 °FMore clouds than sun.9 mph48%30.16 "Hg15 mi
1:00 PM12 °FOvercast.12 mph48%30.16 "Hg15 mi
12:00 PM10 °FOvercast.10 mph47%30.17 "Hg10 mi
11:00 AM9 °FOvercast.10 mph51%30.17 "Hg15 mi
10:00 AM7 °FBroken clouds.8 mph66%30.18 "Hg15 mi
9:00 AM5 °FBroken clouds.8 mph72%30.18 "Hg15 mi
8:00 AM3 °FOvercast.7 mph72%30.16 "Hg15 mi
7:00 AM3 °FOvercast.9 mph72%30.15 "Hg15 mi
6:00 AM3 °FMostly cloudy.12 mph72%30.14 "Hg15 mi
5:00 AM3 °FOvercast.9 mph72%30.14 "Hg15 mi
4:00 AM1 °FOvercast.6 mph78%30.14 "Hg15 mi
3:00 AM1 °FPassing clouds.7 mph78%30.13 "Hg15 mi
Weather by CustomWeather, © 2015

See weather overviewHow to use our weather pages